TimeCST,TemperatureF,Dew PointF,Humidity,Sea Level PressureIn,VisibilityMPH,Wind Direction,Wind SpeedMPH,Gust SpeedMPH,PrecipitationIn,Events,Conditions,WindDirDegrees,DateUTC
8:55 AM,24.8,21.2,86,30.06,10.0,SW,6.9,-,N/A,,Clear,230,2013-02-25 14:55:00
9:15 AM,26.6,21.2,80,30.06,10.0,SW,5.8,-,N/A,,Clear,220,2013-02-25 15:15:00
9:35 AM,26.6,21.2,80,30.06,10.0,WSW,5.8,-,N/A,,Clear,240,2013-02-25 15:35:00
9:55 AM,28.4,21.2,74,30.05,10.0,SW,5.8,-,N/A,,Partly Cloudy,230,2013-02-25 15:55:00
10:15 AM,30.2,21.2,69,30.05,10.0,SW,5.8,-,N/A,,Mostly Cloudy,230,2013-02-25 16:15:00
10:35 AM,30.2,21.2,69,30.05,10.0,WSW,5.8,-,N/A,,Partly Cloudy,240,2013-02-25 16:35:00
10:55 AM,30.2,21.2,69,30.05,10.0,SW,8.1,-,N/A,,Clear,230,2013-02-25 16:55:00
11:15 AM,32.0,21.2,64,30.05,10.0,SSW,8.1,-,N/A,,Clear,210,2013-02-25 17:15:00
11:35 AM,33.8,21.2,60,30.05,10.0,SW,9.2,-,N/A,,Partly Cloudy,220,2013-02-25 17:35:00
11:55 AM,33.8,21.2,60,30.04,10.0,SW,10.4,-,N/A,,Mostly Cloudy,230,2013-02-25 17:55:00
12:15 PM,33.8,21.2,60,30.03,10.0,SW,10.4,-,0.01,,Overcast,230,2013-02-25 18:15:00
12:35 PM,33.8,21.2,60,30.03,10.0,SW,8.1,-,0.01,,Overcast,230,2013-02-25 18:35:00
12:55 PM,33.8,21.2,60,30.02,10.0,SSW,8.1,-,0.02,,Overcast,200,2013-02-25 18:55:00
1:15 PM,33.8,21.2,60,30.02,10.0,SW,9.2,-,N/A,,Overcast,220,2013-02-25 19:15:00
1:35 PM,33.8,21.2,60,30.01,10.0,SSW,5.8,-,0.01,,Overcast,210,2013-02-25 19:35:00
1:55 PM,33.8,21.2,60,30.01,10.0,SW,10.4,-,0.01,,Overcast,220,2013-02-25 19:55:00
2:15 PM,33.8,23.0,65,30.01,10.0,SSW,9.2,-,N/A,,Overcast,200,2013-02-25 20:15:00
2:35 PM,33.8,23.0,65,30.01,10.0,South,6.9,-,0.01,,Overcast,190,2013-02-25 20:35:00
2:55 PM,33.8,21.2,60,30.01,10.0,South,8.1,-,0.01,,Overcast,190,2013-02-25 20:55:00
3:15 PM,33.8,23.0,65,30.01,10.0,South,6.9,-,N/A,,Overcast,180,2013-02-25 21:15:00
3:35 PM,33.8,23.0,65,30.01,10.0,SSW,6.9,-,N/A,,Overcast,200,2013-02-25 21:35:00
3:55 PM,33.8,23.0,65,30.01,10.0,South,5.8,-,N/A,,Overcast,180,2013-02-25 21:55:00
4:15 PM,33.8,23.0,65,30.01,10.0,South,6.9,-,N/A,,Overcast,170,2013-02-25 22:15:00
4:35 PM,33.8,23.0,65,30.01,10.0,SSW,5.8,-,N/A,,Overcast,200,2013-02-25 22:35:00
4:55 PM,33.8,23.0,65,30.01,10.0,South,8.1,-,N/A,,Overcast,190,2013-02-25 22:55:00
5:15 PM,33.8,23.0,65,30.01,10.0,SSW,5.8,-,N/A,,Overcast,200,2013-02-25 23:15:00
5:35 PM,33.8,24.8,70,30.02,10.0,SW,4.6,-,N/A,,Overcast,220,2013-02-25 23:35:00
5:55 PM,33.8,23.0,65,30.02,10.0,SSW,4.6,-,N/A,,Overcast,210,2013-02-25 23:55:00
6:15 PM,33.8,24.8,70,30.03,10.0,SSW,3.5,-,N/A,,Overcast,210,2013-02-26 00:15:00
6:35 PM,32.0,24.8,75,30.03,10.0,Calm,Calm,-,0.01,,Overcast,0,2013-02-26 00:35:00
6:55 PM,32.0,24.8,75,30.03,10.0,Calm,Calm,-,0.01,,Overcast,0,2013-02-26 00:55:00
7:15 PM,32.0,24.8,75,30.04,10.0,SSW,4.6,-,N/A,,Overcast,210,2013-02-26 01:15:00
7:35 PM,32.0,24.8,75,30.03,10.0,SSW,3.5,-,N/A,,Overcast,200,2013-02-26 01:35:00
7:55 PM,32.0,24.8,75,30.03,10.0,SSW,3.5,-,N/A,,Overcast,200,2013-02-26 01:55:00
8:15 PM,30.2,24.8,80,30.03,10.0,SSW,3.5,-,N/A,,Overcast,210,2013-02-26 02:15:00
8:35 PM,30.2,24.8,80,30.03,10.0,SSW,3.5,-,N/A,,Overcast,200,2013-02-26 02:35:00
8:55 PM,30.2,24.8,80,30.03,10.0,SSW,3.5,-,N/A,,Overcast,210,2013-02-26 02:55:00
9:15 PM,30.2,24.8,80,30.03,10.0,SSW,3.5,-,N/A,,Overcast,210,2013-02-26 03:15:00
9:35 PM,30.2,24.8,80,30.04,10.0,SSW,3.5,-,N/A,,Overcast,200,2013-02-26 03:35:00
9:55 PM,30.2,24.8,80,30.03,10.0,Calm,Calm,-,N/A,,Overcast,0,2013-02-26 03:55:00
10:15 PM,30.2,23.0,75,30.03,10.0,SSW,3.5,-,N/A,,Overcast,200,2013-02-26 04:15:00
10:35 PM,30.2,23.0,75,30.03,10.0,Calm,Calm,-,N/A,,Overcast,0,2013-02-26 04:35:00
10:55 PM,28.4,21.2,74,30.02,10.0,Calm,Calm,-,N/A,,Partly Cloudy,0,2013-02-26 04:55:00
11:15 PM,24.8,19.4,80,30.01,8.0,Calm,Calm,-,N/A,,Clear,0,2013-02-26 05:15:00
11:35 PM,24.8,19.4,80,30.01,2.0,Calm,Calm,-,N/A,,Clear,0,2013-02-26 05:35:00
11:55 PM,23.0,19.4,86,30.03,9.0,SSE,4.6,-,N/A,,Clear,160,2013-02-26 05:55:00